Location: ??
(35.4627°N, 139.3695°E)
Time: 15:18:53
(UTC+00:00)

USA 238 DEB - Pass Details

Date: 25 November 2020
Orbit: 997 x 1215 km, 63.4° (Epoch: 11 January)

Event Time Altitude Azimuth Distance (km) Brightness Sun altitude
Exits shadow 20:08:33 16° 316° (NW) 2,620 5.2 -16.1°
Maximum altitude 20:14:20 55° 245° (WSW) 1,403 4.0 -15.0°
Drops below altitude 10° 20:21:42 10° 169° (S) 3,148 6.5 -13.5°
Sets 20:24:32 0° 165° (SSE) 4,115 7.2 -13.0°
